TimeCDT,TemperatureF,Dew PointF,Humidity,Sea Level PressureIn,VisibilityMPH,Wind Direction,Wind SpeedMPH,Gust SpeedMPH,PrecipitationIn,Events,Conditions,WindDirDegrees,DateUTC
12:15 AM,37.4,28.4,70,30.03,10.0,Calm,Calm,-,N/A,,Mostly Cloudy,0,2012-10-11 05:15:00
12:35 AM,39.2,28.4,65,30.02,10.0,Calm,Calm,-,N/A,,Mostly Cloudy,0,2012-10-11 05:35:00
12:55 AM,39.2,28.4,65,30.01,10.0,Calm,Calm,-,N/A,,Mostly Cloudy,0,2012-10-11 05:55:00
1:15 AM,41.0,28.4,61,29.99,10.0,Calm,Calm,-,N/A,,Mostly Cloudy,0,2012-10-11 06:15:00
1:35 AM,41.0,28.4,61,29.99,10.0,South,4.6,-,N/A,,Overcast,190,2012-10-11 06:35:00
1:55 AM,41.0,28.4,61,29.98,10.0,SSW,5.8,-,N/A,,Overcast,200,2012-10-11 06:55:00
2:15 AM,41.0,28.4,61,29.98,10.0,Calm,Calm,-,N/A,,Overcast,0,2012-10-11 07:15:00
2:55 AM,41.0,30.2,65,29.95,10.0,South,4.6,-,N/A,,Overcast,180,2012-10-11 07:55:00
3:15 AM,42.8,30.2,61,29.94,10.0,South,3.5,-,N/A,,Overcast,170,2012-10-11 08:15:00
3:35 AM,42.8,30.2,61,29.91,10.0,South,6.9,-,N/A,,Overcast,170,2012-10-11 08:35:00
3:55 AM,42.8,30.2,61,29.90,10.0,South,5.8,-,N/A,,Overcast,180,2012-10-11 08:55:00
4:15 AM,44.6,30.2,57,29.90,10.0,South,5.8,-,N/A,,Overcast,190,2012-10-11 09:15:00
4:35 AM,44.6,30.2,57,29.89,10.0,SW,6.9,-,N/A,,Overcast,220,2012-10-11 09:35:00
4:55 AM,44.6,30.2,57,29.88,10.0,SSW,5.8,-,N/A,,Overcast,210,2012-10-11 09:55:00
5:15 AM,44.6,30.2,57,29.86,10.0,SSW,8.1,-,N/A,,Mostly Cloudy,200,2012-10-11 10:15:00
5:35 AM,44.6,30.2,57,29.87,10.0,SW,6.9,-,N/A,,Overcast,220,2012-10-11 10:35:00
5:55 AM,46.4,30.2,53,29.87,10.0,SW,8.1,-,N/A,,Overcast,220,2012-10-11 10:55:00
6:15 AM,46.4,30.2,53,29.86,10.0,SW,8.1,-,N/A,,Mostly Cloudy,230,2012-10-11 11:15:00
6:35 AM,46.4,30.2,53,29.86,10.0,SW,6.9,16.1,N/A,,Mostly Cloudy,230,2012-10-11 11:35:00
6:55 AM,46.4,30.2,53,29.86,10.0,SW,8.1,-,N/A,,Overcast,230,2012-10-11 11:55:00
7:15 AM,46.4,30.2,53,29.86,10.0,SW,6.9,-,N/A,,Overcast,230,2012-10-11 12:15:00
7:35 AM,46.4,30.2,53,29.87,10.0,SW,5.8,-,N/A,,Mostly Cloudy,230,2012-10-11 12:35:00
7:55 AM,46.4,32.0,57,29.88,10.0,WSW,6.9,-,N/A,,Mostly Cloudy,240,2012-10-11 12:55:00
8:15 AM,46.4,32.0,57,29.89,10.0,WSW,5.8,-,N/A,,Mostly Cloudy,250,2012-10-11 13:15:00
8:35 AM,46.4,32.0,57,29.90,10.0,WNW,3.5,-,N/A,,Overcast,290,2012-10-11 13:35:00
8:55 AM,48.2,32.0,54,29.90,10.0,WSW,3.5,-,N/A,,Overcast,250,2012-10-11 13:55:00
9:15 AM,50.0,32.0,50,29.91,10.0,West,4.6,-,N/A,,Overcast,260,2012-10-11 14:15:00
9:35 AM,50.0,32.0,50,29.91,10.0,West,4.6,-,N/A,,Overcast,280,2012-10-11 14:35:00
9:55 AM,50.0,32.0,50,29.91,10.0,WNW,4.6,-,N/A,,Overcast,290,2012-10-11 14:55:00
10:15 AM,50.0,32.0,50,29.93,10.0,WNW,12.7,17.3,N/A,,Mostly Cloudy,290,2012-10-11 15:15:00
10:35 AM,50.0,32.0,50,29.95,10.0,NW,12.7,21.9,N/A,,Overcast,310,2012-10-11 15:35:00
10:55 AM,50.0,32.0,50,29.96,10.0,NW,13.8,19.6,N/A,,Overcast,320,2012-10-11 15:55:00
11:15 AM,50.0,32.0,50,29.97,10.0,NW,10.4,21.9,N/A,,Overcast,320,2012-10-11 16:15:00
11:35 AM,48.2,32.0,54,29.98,10.0,NNW,13.8,21.9,N/A,,Overcast,330,2012-10-11 16:35:00
11:55 AM,50.0,32.0,50,29.99,10.0,NNW,8.1,-,N/A,,Overcast,340,2012-10-11 16:55:00
12:15 PM,50.0,32.0,50,30.01,10.0,West,12.7,17.3,N/A,,Overcast,280,2012-10-11 17:15:00
12:55 PM,51.8,32.0,47,30.00,10.0,NNW,8.1,-,N/A,,Mostly Cloudy,330,2012-10-11 17:55:00
1:15 PM,51.8,32.0,47,30.00,10.0,NW,11.5,17.3,N/A,,Mostly Cloudy,310,2012-10-11 18:15:00
1:35 PM,51.8,32.0,47,30.01,10.0,NW,11.5,19.6,N/A,,Overcast,320,2012-10-11 18:35:00
1:55 PM,53.6,32.0,44,30.02,10.0,NNW,12.7,19.6,N/A,,Mostly Cloudy,330,2012-10-11 18:55:00
2:15 PM,51.8,28.4,41,30.03,10.0,West,11.5,-,N/A,,Scattered Clouds,270,2012-10-11 19:15:00
2:35 PM,51.8,26.6,38,30.04,10.0,NW,16.1,21.9,N/A,,Clear,320,2012-10-11 19:35:00
2:55 PM,53.6,23.0,30,30.05,10.0,NW,15.0,23.0,N/A,,Scattered Clouds,310,2012-10-11 19:55:00
3:15 PM,51.8,23.0,33,30.06,10.0,NW,16.1,21.9,N/A,,Overcast,320,2012-10-11 20:15:00
3:35 PM,51.8,21.2,30,30.06,10.0,NW,13.8,20.7,N/A,,Scattered Clouds,320,2012-10-11 20:35:00
3:55 PM,50.0,21.2,32,30.07,10.0,WNW,10.4,-,N/A,,Clear,290,2012-10-11 20:55:00
4:15 PM,51.8,21.2,30,30.07,10.0,WNW,9.2,17.3,N/A,,Clear,290,2012-10-11 21:15:00
4:55 PM,51.8,19.4,28,30.09,10.0,NNW,15.0,20.7,N/A,,Scattered Clouds,340,2012-10-11 21:55:00
5:15 PM,50.0,19.4,30,30.10,10.0,NNW,9.2,-,N/A,,Clear,330,2012-10-11 22:15:00
5:35 PM,46.4,17.6,32,30.12,10.0,NW,9.2,20.7,N/A,,Clear,320,2012-10-11 22:35:00
5:55 PM,44.6,19.4,37,30.13,10.0,NNW,9.2,-,N/A,,Clear,340,2012-10-11 22:55:00
6:35 PM,42.8,23.0,46,30.15,10.0,WNW,3.5,-,N/A,,Clear,300,2012-10-11 23:35:00
6:55 PM,42.8,24.8,49,30.16,10.0,WNW,4.6,-,N/A,,Clear,300,2012-10-11 23:55:00
7:15 PM,41.0,23.0,49,30.18,10.0,NNW,6.9,-,N/A,,Clear,330,2012-10-12 00:15:00
7:35 PM,41.0,23.0,49,30.19,10.0,NW,4.6,-,N/A,,Clear,320,2012-10-12 00:35:00
8:15 PM,41.0,23.0,49,30.22,10.0,NNW,9.2,-,N/A,,Clear,340,2012-10-12 01:15:00
8:35 PM,41.0,23.0,49,30.23,10.0,NNW,4.6,-,N/A,,Clear,340,2012-10-12 01:35:00
8:55 PM,37.4,23.0,56,30.24,10.0,NW,3.5,-,N/A,,Clear,320,2012-10-12 01:55:00
9:15 PM,37.4,23.0,56,30.25,10.0,NW,3.5,-,N/A,,Clear,320,2012-10-12 02:15:00
9:55 PM,37.4,24.8,60,30.26,10.0,WNW,3.5,-,N/A,,Clear,300,2012-10-12 02:55:00
10:15 PM,35.6,24.8,65,30.27,10.0,Calm,Calm,-,N/A,,Clear,0,2012-10-12 03:15:00
10:55 PM,35.6,23.0,60,30.29,10.0,Calm,Calm,-,N/A,,Clear,0,2012-10-12 03:55:00
11:15 PM,33.8,24.8,70,30.30,10.0,WNW,3.5,-,N/A,,Clear,290,2012-10-12 04:15:00
11:35 PM,33.8,24.8,70,30.31,10.0,Calm,Calm,-,N/A,,Clear,0,2012-10-12 04:35:00
11:55 PM,33.8,24.8,70,30.31,10.0,West,4.6,-,N/A,,Clear,280,2012-10-12 04:55:00